This is the latest recevied weather packets stored in our database for station/object LY3FF-10. If no packets are shown the sender has not sent any weather packets the latest 10 day(s).
| Time | Temp. | Humidity | Pressure | Rain* | Wind** | Luminosity | Snow |
|---|---|---|---|---|---|---|---|
| 1777548980 | 11.11° C | 32% | 1005.7 hPa | - | - | - | - |
| 1777548162 | 10.56° C | 33% | 1005.9 hPa | - | - | - | - |
| 1777547341 | 10.56° C | 33% | 1005.9 hPa | - | - | - | - |
| 1777546461 | 11.11° C | 33% | 1005.8 hPa | - | - | - | - |
| 1777545706 | 11.11° C | 33% | 1005.9 hPa | - | - | - | - |
| 1777544937 | 11.11° C | 33% | 1006 hPa | - | - | - | - |
| 1777544127 | 11.67° C | 34% | 1005.8 hPa | - | - | - | - |
| 1777543321 | 11.11° C | 35% | 1005.8 hPa | - | - | - | - |
| 1777542552 | 11.11° C | 35% | 1005.9 hPa | - | - | - | - |
| 1777541718 | 11.11° C | 35% | 1006 hPa | - | - | - | - |
| 1777540948 | 10° C | 35% | 1006.2 hPa | - | - | - | - |
| 1777540181 | 9.44° C | 38% | 1006.2 hPa | - | - | - | - |
| 1777539392 | 8.89° C | 39% | 1006.2 hPa | - | - | - | - |
| 1777538521 | 9.44° C | 38% | 1006.3 hPa | - | - | - | - |
| 1777537728 | 8.89° C | 40% | 1006.4 hPa | - | - | - | - |
| 1777536841 | 8.33° C | 40% | 1006.5 hPa | - | - | - | - |
| 1777536067 | 7.78° C | 40% | 1006.6 hPa | - | - | - | - |
| 1777535307 | 7.78° C | 42% | 1006.6 hPa | - | - | - | - |
| 1777534534 | 7.22° C | 43% | 1006.7 hPa | - | - | - | - |
| 1777533721 | 6.67° C | 43% | 1006.7 hPa | - | - | - | - |
| 1777532951 | 6.67° C | 43% | 1006.7 hPa | - | - | - | - |
| 1777532138 | 6.11° C | 44% | 1006.7 hPa | - | - | - | - |
| 1777531372 | 6.11° C | 44% | 1006.7 hPa | - | - | - | - |
| 1777530612 | 5.56° C | 46% | 1006.6 hPa | - | - | - | - |
| 1777529848 | 5° C | 47% | 1006.6 hPa | - | - | - | - |
* Rain since midnight (hover to see other rain measurements)
** Current wind speed in m/s (hover to see current wind gust speed)